Zurück zum Katalog

FENGYUN 1C DEB

AktivSSO
NORAD 38159·DEBRIS·🇨🇳 China

Gestartet May 10, 1999 von Taiyuan Satellite Launch Center

Loading…

Nächste Überflüge (nächste 24 Stunden)

TLE

VeraltetSource: Space-Track

Epoche: Aug 31, 2026, 12:10 UTC

1 38159U 99025ERG 26243.50695702  .00000549  00000-0  37318-3 0  9995
2 38159  99.2924 146.2234 0056481 340.8724  19.0320 14.03807553867841

Verfolge FENGYUN 1C DEB in Echtzeit mit AllMySat

Download on the App Store